Weather History for Seward, AK

Change the Weather History Date:

Sunday, October 7, 2012

  Actual Average Record
Temperature  
Mean Temperature 47 °F -  
Max Temperature 48 °F 47 °F 58 °F (1993)
Min Temperature 46 °F 38 °F 29 °F (1958)
Degree Days  
Heating Degree Days 18    
Moisture  
Dew Point 47 °F    
Average Humidity 97    
Maximum Humidity 100    
Minimum Humidity 93    
Precipitation  
Precipitation 0.09 in - - ()
Sea Level Pressure  
Sea Level Pressure 30.33 in    
Wind  
Wind Speed 1 mph (SSE)    
Max Wind Speed 12 mph    
Max Gust Speed -    
Visibility 6 miles    
Events Fog , Rain    
Averages and records for this station are not official NWS values.
T = Trace of Precipitation, MM = Missing Value Source: NWS Daily Summary

Daily Weather History Graph

Daily Weather History Graph

Search for Another Location

Airport:

Trip Planner

Search our weather history database for the weather conditions in past years. The results will help you decide how hot, cold, wet, or windy it might be!

Date:

Astronomy

Oct. 07, 2012 Rise Set
Actual Time 8:19 AM AKDT 7:09 PM AKDT
Civil Twilight 7:37 AM AKDT 7:51 PM AKDT
Nautical Twilight 6:49 AM AKDT 8:39 PM AKDT
Astronomical Twilight 5:59 AM AKDT 9:29 PM AKDT
Moon 11:29 PM AKDT (10/7) 4:08 PM AKDT (10/7)
Length of Visible Light 12h 13m
Length of Day
10h 50m
Waning Gibbous, 55% of the Moon is Illuminated
Oct 7
Waning Gibbous
Oct 7
Last Quarter
Oct 15
New
Oct 21
First Quarter
Oct 29
Full

Hourly Weather History & Observations

Time (AKDT) Temp. Windchill Dew Point Humidity Pressure Visibility Wind Dir Wind Speed Gust Speed Precip Events Conditions
12:53 AM 46.9 °F - 46.0 °F 97% 30.33 in 10.0 mi Calm Calm - 0.01 in Rain Light Rain
1:15 AM 46.4 °F 45.2 °F 44.6 °F 93% 30.34 in 10.0 mi NNW 3.5 mph - 0.00 in Rain Light Rain
1:53 AM 46.9 °F - 46.0 °F 97% 30.34 in 10.0 mi Calm Calm - 0.00 in   Overcast
2:53 AM 46.0 °F - 45.0 °F 96% 30.34 in 8.0 mi Calm Calm - 0.02 in   Overcast
3:27 AM 46.4 °F - 46.4 °F 100% 30.34 in 9.0 mi Calm Calm - N/A   Overcast
3:36 AM 46.4 °F - 44.6 °F 93% 30.34 in 8.0 mi Calm Calm - N/A   Overcast
3:53 AM 46.0 °F - 45.0 °F 96% 30.34 in 4.0 mi Calm Calm - 0.00 in Rain Light Rain
4:53 AM 46.0 °F - 45.0 °F 96% 30.34 in 4.0 mi Calm Calm - 0.01 in Rain Light Rain
5:13 AM 46.4 °F - 46.4 °F 100% 30.33 in 6.0 mi Calm Calm - 0.00 in   Overcast
5:21 AM 46.4 °F - 46.4 °F 100% 30.33 in 7.0 mi Calm Calm - 0.00 in   Overcast
5:53 AM 46.9 °F - 45.0 °F 93% 30.33 in 8.0 mi Calm Calm - 0.00 in   Overcast
6:53 AM 46.0 °F - 46.0 °F 100% 30.32 in 4.0 mi Calm Calm - 0.01 in   Overcast
7:05 AM 46.4 °F - 44.6 °F 93% 30.32 in 2.0 mi Calm Calm - N/A   Overcast
7:18 AM 46.4 °F - 44.6 °F 93% 30.32 in 4.0 mi Calm Calm - 0.00 in Rain Light Rain
7:53 AM 46.9 °F - 46.0 °F 97% 30.32 in 7.0 mi Calm Calm - 0.00 in Rain Light Rain
8:26 AM 46.4 °F - 44.6 °F 93% 30.33 in 2.0 mi Calm Calm - 0.01 in Rain Light Rain
8:36 AM 46.4 °F - 44.6 °F 93% 30.33 in 2.0 mi Calm Calm - 0.01 in Rain Light Rain
8:45 AM 46.4 °F - 46.4 °F 100% 30.32 in 1.5 mi Calm Calm - 0.01 in Rain Light Rain
8:53 AM 46.9 °F - 46.0 °F 97% 30.32 in 1.2 mi Calm Calm - 0.02 in Rain Light Rain
9:08 AM 46.4 °F - 46.4 °F 100% 30.32 in 1.8 mi Calm Calm - 0.00 in   Overcast
9:53 AM 46.9 °F - 46.0 °F 97% 30.34 in 1.8 mi Calm Calm - 0.01 in   Overcast
10:02 AM 46.4 °F - 46.4 °F 100% 30.34 in 2.0 mi Calm Calm - N/A   Overcast
10:11 AM 46.4 °F - 46.4 °F 100% 30.34 in 1.2 mi Calm Calm - N/A   Overcast
10:19 AM 46.4 °F - 46.4 °F 100% 30.34 in 0.8 mi Calm Calm - 0.00 in Rain Light Rain
10:33 AM 46.4 °F - 46.4 °F 100% 30.34 in 1.2 mi Calm Calm - 0.01 in   Overcast
10:53 AM 46.9 °F - 46.0 °F 97% 30.34 in 2.5 mi Calm Calm - 0.01 in   Overcast
11:00 AM 46.4 °F - 46.4 °F 100% 30.34 in 5.0 mi Calm Calm - N/A   Overcast
11:53 AM 48.0 °F - 46.9 °F 96% 30.33 in 10.0 mi Calm Calm - N/A   Overcast
12:53 PM 48.0 °F - 46.9 °F 96% 30.35 in 2.5 mi Calm Calm - N/A   Overcast
1:05 PM 48.2 °F - 46.4 °F 93% 30.34 in 1.5 mi Calm Calm - N/A   Overcast
1:22 PM 48.2 °F - 48.2 °F 100% 30.34 in 3.0 mi Calm Calm - N/A   Overcast
1:33 PM 48.2 °F - 46.4 °F 93% 30.34 in 1.8 mi Calm Calm - N/A   Overcast
1:37 PM 48.2 °F - 46.4 °F 93% 30.34 in 0.8 mi Calm Calm - N/A   Mist
1:53 PM 48.0 °F - 48.0 °F 100% 30.34 in 0.5 mi Calm Calm - N/A Fog Fog
2:29 PM 48.2 °F - 48.2 °F 100% 30.33 in 1.2 mi Calm Calm - N/A   Overcast
2:42 PM 48.2 °F - 48.2 °F 100% 30.33 in 10.0 mi Calm Calm - N/A   Overcast
2:53 PM 48.9 °F - 48.0 °F 97% 30.34 in 10.0 mi Calm Calm - N/A   Overcast
3:14 PM 48.2 °F - 48.2 °F 100% 30.33 in 10.0 mi SW 4.6 mph - N/A   Overcast
3:49 PM 48.2 °F - 48.2 °F 100% 30.33 in 10.0 mi SSE 6.9 mph - N/A   Overcast
3:53 PM 48.9 °F - 48.0 °F 97% 30.33 in 10.0 mi SSE 9.2 mph - N/A   Overcast
4:53 PM 48.9 °F - 48.0 °F 97% 30.32 in 10.0 mi SSE 5.8 mph - N/A   Overcast
5:53 PM 48.9 °F - 48.0 °F 97% 30.31 in 9.0 mi SSE 11.5 mph - N/A   Overcast
6:17 PM 48.2 °F - 48.2 °F 100% 30.31 in 10.0 mi SE 9.2 mph - N/A   Overcast
6:48 PM 48.2 °F - 48.2 °F 100% 30.30 in 10.0 mi SSE 11.5 mph - N/A   Overcast
6:53 PM 48.9 °F - 48.0 °F 97% 30.30 in 10.0 mi SSE 10.4 mph - N/A   Overcast
7:24 PM 48.2 °F - 46.4 °F 93% 30.31 in 10.0 mi SE 9.2 mph - N/A   Overcast
7:53 PM 48.9 °F - 48.0 °F 97% 30.32 in 10.0 mi SE 9.2 mph - N/A   Overcast
8:22 PM 48.2 °F - 48.2 °F 100% 30.31 in 10.0 mi SSE 4.6 mph - N/A   Overcast
8:53 PM 48.9 °F - 48.0 °F 97% 30.32 in 10.0 mi Calm Calm - N/A   Overcast
8:59 PM 48.2 °F - 48.2 °F 100% 30.32 in 10.0 mi Variable 3.5 mph - N/A   Overcast
9:53 PM 48.9 °F - 48.0 °F 97% 30.32 in 10.0 mi SW 3.5 mph - N/A   Overcast
10:36 PM 48.2 °F - 48.2 °F 100% 30.32 in 10.0 mi Calm Calm - N/A   Overcast
10:53 PM 48.9 °F - 48.0 °F 97% 30.32 in 10.0 mi Calm Calm - N/A   Overcast
11:28 PM 48.2 °F - 48.2 °F 100% 30.31 in 10.0 mi Calm Calm - N/A   Overcast
11:53 PM 48.9 °F - 48.0 °F 97% 30.31 in 10.0 mi Calm Calm - N/A   Overcast